Vorticity
8 8 8 8 8 7 6 6 7 7 8 7 6 6 6 6 6 6 6 7 7 6 6 7 8 9 9 10 9 9 8 8 8 9 9 10 11 12 13 14 13 13 12 11 10 10 10 10 10 10 10 9 8 7 7 6 7 7 7 8 8 7 5 5 6 8 9 9 7
10 10 11 11 10 9 7 6 6 6 7 7 6 5 4 4 4 3 3 4 5 5 5 6 7 8 8 9 10 10 9 8 8 8 8 8 9 10 11 12 12 13 12 12 11 10 10 10 10 10 10 11 10 9 9 7 7 7 7 8 8 8 7 6 6 7 7 9 8
11 12 12 13 13 11 9 7 6 6 7 7 6 6 5 3 2 1 1 1 2 3 3 3 3 4 5 6 8 9 10 10 9 9 8 7 7 8 9 9 10 11 11 12 12 11 11 10 10 9 10 10 11 11 11 10 9 8 7 8 8 8 8 9 8 8 8 8 9
11 13 13 13 14 13 12 8 6 6 6 7 7 7 6 5 3 2 1 0 0 0 0 0 0 1 2 3 5 6 8 10 11 10 10 9 8 7 7 8 8 9 10 10 11 11 11 10 10 9 9 9 10 10 11 11 11 10 9 8 8 8 9 9 9 9 9 9 9
11 12 12 12 13 14 13 11 8 6 5 6 6 7 7 7 6 5 4 3 2 1 1 0 0 0 0 1 2 3 5 7 9 10 11 11 10 9 8 8 7 8 8 8 9 10 10 10 10 9 9 9 8 9 9 10 11 11 11 10 10 10 10 10 11 11 11 10 10
10 11 10 10 11 13 13 13 10 8 6 5 6 7 8 8 8 8 7 6 5 4 4 3 2 2 1 1 1 2 3 4 6 8 10 11 11 11 10 9 8 8 7 7 8 8 9 9 9 9 9 8 8 8 8 8 9 10 10 10 10 10 10 11 12 12 12 12 11
10 10 9 8 10 11 13 13 11 9 7 6 6 7 7 8 8 8 8 7 7 7 6 5 4 4 3 3 3 3 4 4 5 7 8 10 10 11 11 11 10 9 8 8 7 7 8 8 8 9 9 8 8 8 8 7 7 8 8 9 9 9 9 10 10 11 12 13 13
9 9 8 8 10 11 13 13 12 10 9 8 7 7 7 8 8 8 8 8 8 7 6 5 5 4 4 4 4 4 5 6 6 7 8 9 10 11 11 12 11 11 10 9 9 8 8 8 8 8 8 8 8 8 8 8 7 7 7 7 8 7 7 8 8 9 10 11 12
8 8 8 8 10 12 13 13 12 10 9 8 7 7 7 8 7 7 7 7 6 6 6 5 5 4 4 4 4 5 5 6 7 8 9 10 10 11 11 12 12 12 12 11 11 10 9 8 8 8 8 8 8 8 8 8 8 8 7 7 7 7 7 6 6 6 7 7 8
7 8 8 9 11 13 14 14 12 10 8 7 7 7 7 7 7 7 6 6 5 5 5 5 5 4 4 4 4 5 5 6 7 8 9 10 11 11 12 12 12 12 12 12 12 12 11 10 10 9 8 8 8 8 8 8 8 8 8 8 8 8 7 7 6 6 6 5 6
6 8 9 10 12 13 14 14 13 10 8 6 6 6 6 6 6 6 5 5 5 5 4 4 4 4 4 4 4 5 5 6 7 8 9 10 11 11 12 12 12 12 12 12 12 12 12 12 11 11 10 9 9 8 8 8 8 8 8 8 8 8 8 9 8 7 7 6 6
7 8 10 10 12 14 15 15 12 9 6 5 5 5 5 5 5 4 4 4 4 4 4 4 4 4 5 5 5 5 6 6 7 8 8 9 10 10 11 12 12 13 12 12 12 12 12 12 12 12 11 11 10 9 9 9 8 8 8 9 8 8 8 9 9 8 8 8 7
7 9 10 11 13 14 15 15 11 8 6 4 4 4 4 4 4 3 3 3 3 3 3 4 4 4 5 5 5 6 6 7 7 8 8 8 9 10 10 11 12 12 12 12 12 11 11 11 11 11 11 11 11 10 10 9 9 8 8 8 8 8 8 9 9 9 9 9 9
9 11 11 11 13 15 15 14 11 8 5 3 3 3 3 3 3 3 2 3 3 3 3 4 4 4 5 5 5 6 6 7 7 8 8 8 9 9 10 10 11 11 11 11 11 11 10 10 10 10 10 10 10 10 10 10 9 9 8 8 8 7 8 8 8 8 8 8 8
11 12 12 12 14 15 16 14 11 8 5 3 3 3 2 2 2 2 2 2 3 3 3 4 4 4 5 5 5 6 6 7 8 8 8 8 9 9 10 10 10 10 10 10 10 10 10 9 9 9 8 9 9 9 9 10 9 9 9 8 8 7 7 7 7 7 6 7 7
12 12 13 13 15 16 16 14 11 8 5 3 2 2 2 1 1 1 1 2 2 3 3 4 4 4 4 5 6 6 7 7 8 8 8 8 9 9 9 10 10 9 9 9 9 9 8 8 8 8 7 7 7 7 7 8 8 9 9 9 8 8 8 8 7 7 6 6 6
12 12 13 14 16 17 16 14 11 8 5 3 2 2 1 1 0 1 1 2 2 3 3 4 4 4 4 5 5 6 7 7 8 8 9 9 9 9 9 9 9 9 9 9 8 8 7 7 7 6 6 6 6 6 6 6 6 7 7 8 8 8 8 8 8 7 7 7 6
12 12 13 14 16 16 16 14 11 8 5 3 2 1 1 1 1 1 1 2 3 3 3 3 4 4 4 4 5 6 7 7 8 8 9 9 9 9 9 9 9 9 9 8 8 7 7 6 6 6 5 5 5 5 5 5 5 5 5 6 6 7 7 7 7 7 7 7 7
11 12 13 14 15 16 15 13 10 7 5 3 2 1 1 1 1 1 2 2 3 4 4 3 3 4 4 5 5 6 7 8 8 8 8 9 9 9 9 9 9 9 9 8 8 7 7 6 6 5 5 5 4 4 5 5 5 5 5 5 5 5 5 6 6 6 7 6 6
11 12 12 13 14 14 13 11 8 6 4 2 2 1 1 1 1 2 2 3 3 4 4 4 4 4 4 5 5 6 7 8 8 8 8 8 9 9 9 9 9 9 9 9 8 8 7 7 6 6 5 5 4 4 4 4 4 5 5 5 5 5 5 5 5 5 6 6 6
12 11 11 11 12 12 11 9 6 4 3 1 1 1 1 1 1 2 3 3 3 4 4 5 4 4 5 5 6 6 7 7 8 8 8 8 9 9 9 8 8 9 9 9 9 8 8 8 7 7 6 6 5 5 5 4 4 4 5 5 5 5 5 5 5 5 5 6 6
11 10 9 10 11 11 10 8 5 3 2 1 1 1 1 1 2 2 3 3 3 4 5 5 5 5 5 5 6 6 6 7 8 8 8 8 8 8 8 8 8 8 9 9 9 8 8 8 8 8 8 7 7 6 6 5 5 5 5 5 5 5 6 6 6 5 5 5 5
10 9 9 9 10 10 9 7 5 3 2 1 0 0 1 1 2 2 3 3 4 4 5 4 5 5 5 5 6 6 6 7 8 8 8 8 8 8 8 8 8 8 8 8 8 8 8 8 8 8 8 8 8 8 7 7 6 6 6 5 5 5 6 6 6 6 6 5 5
9 8 8 8 9 9 8 7 5 3 2 0 0 0 1 1 2 2 3 4 4 4 4 4 4 4 5 5 6 6 6 6 7 7 8 8 8 8 8 8 8 8 8 8 8 8 8 7 7 8 8 8 8 8 8 8 8 8 7 7 6 6 6 6 6 6 6 6 6
9 8 7 8 9 9 8 7 5 3 1 0 0 1 1 2 3 3 4 4 5 5 5 4 4 5 5 5 6 6 6 6 6 6 6 7 8 8 8 8 8 8 8 7 7 7 7 8 8 7 7 7 7 7 8 8 9 9 9 8 8 7 7 7 7 8 7 7 6
8 7 8 9 9 9 8 6 4 2 1 0 1 1 2 3 3 4 4 5 5 5 5 5 5 5 6 6 5 6 7 7 7 6 6 6 6 7 7 8 8 7 7 7 7 7 7 7 7 7 7 7 7 7 7 8 8 9 9 9 9 9 9 9 9 9 9 8 7
8 8 9 9 9 9 7 5 3 2 1 1 1 2 3 3 4 5 5 6 5 5 5 6 6 6 6 5 6 6 7 7 7 7 7 6 6 6 7 7 7 7 7 7 6 6 6 6 6 7 7 7 7 6 6 6 7 8 9 9 10 10 11 10 10 10 9 9 9
7 8 9 10 9 8 6 4 2 1 1 1 2 3 4 4 5 6 6 6 5 5 6 7 6 5 5 6 7 7 7 7 7 7 7 7 7 7 7 6 6 6 6 6 6 6 6 6 6 7 7 7 7 6 6 6 6 7 7 8 9 10 11 12 11 11 10 11 11
8 9 10 10 8 7 5 3 2 1 2 3 3 4 5 5 6 6 6 6 6 7 7 6 5 5 6 8 7 7 7 8 8 8 8 8 8 8 8 7 7 7 7 6 6 6 6 6 6 7 7 7 7 7 7 7 6 6 7 8 9 10 11 12 12 12 13 13 12
8 9 9 9 7 5 3 2 2 2 3 4 4 5 6 6 7 7 7 7 8 7 6 4 5 6 8 8 7 8 9 9 9 9 9 9 9 9 9 8 8 8 8 8 7 7 7 7 7 7 7 7 7 7 7 7 7 7 7 8 9 10 10 11 11 12 13 14 13
8 8 8 7 5 4 2 2 2 3 4 5 5 6 6 7 7 8 8 7 6 5 5 5 6 7 7 7 7 8 9 8 9 10 10 10 10 9 9 9 9 9 9 9 9 9 9 9 9 8 8 8 8 8 8 8 8 9 9 9 9 10 11 11 11 12 13 14 14
8 8 7 5 4 3 2 2 3 4 5 6 7 7 7 8 8 7 6 6 4 4 4 6 6 6 6 6 7 8 8 8 9 9 9 9 9 9 9 9 10 10 10 10 10 10 10 10 10 10 10 10 9 9 9 9 9 10 10 10 11 12 12 12 12 13 13 14 14
8 7 6 5 3 2 3 4 5 6 7 7 7 8 8 8 7 6 6 5 5 5 5 5 5 5 6 6 6 7 7 7 7 7 8 8 8 8 8 9 10 10 10 10 10 10 10 10 11 11 11 11 10 10 10 11 11 11 11 12 13 14 14 14 14 14 14 14 14
8 7 6 4 3 3 4 6 7 7 7 8 8 8 8 7 6 6 6 5 5 5 5 5 5 5 5 5 5 5 6 6 6 6 6 7 7 7 7 8 8 9 9 10 10 10 10 10 11 11 11 11 10 10 11 11 12 12 13 13 14 15 15 15 15 15 14 14 14
8 7 5 4 4 5 6 7 8 8 8 8 8 8 8 8 7 6 5 4 4 5 5 6 6 5 5 6 6 6 6 6 6 6 6 6 6 6 6 7 7 7 8 9 9 9 9 9 10 11 11 10 10 10 11 12 12 13 13 13 14 15 15 15 15 15 15 14 14
8 7 6 5 5 7 8 9 9 9 9 9 8 8 7 7 7 6 5 3 4 5 6 6 6 6 6 7 7 7 6 6 6 6 6 6 6 6 6 5 6 6 7 8 8 8 9 9 10 10 10 10 10 11 11 12 12 12 12 13 14 14 15 14 14 14 14 14 14
8 7 6 6 7 9 10 9 9 9 9 9 9 7 6 5 5 5 5 4 5 6 6 5 6 6 7 6 6 6 6 6 6 6 6 6 6 6 5 5 6 6 7 8 8 9 9 10 10 10 10 10 10 11 11 11 11 12 12 13 13 13 14 13 13 13 13 13 13
8 8 8 8 9 10 10 9 9 9 9 8 8 7 6 5 5 5 5 6 6 5 5 5 6 6 6 5 5 5 5 6 6 6 6 6 6 6 6 6 7 7 8 9 9 10 10 10 11 11 11 10 10 11 11 10 11 11 12 12 12 13 13 13 12 12 12 12 12
9 9 10 10 11 10 10 9 9 9 8 7 6 6 6 6 6 5 5 6 6 5 5 5 5 5 5 5 5 5 5 5 6 6 6 7 7 7 7 7 8 9 10 10 11 11 11 11 11 12 12 11 11 11 10 10 10 11 11 12 12 12 12 12 11 11 11 11 11
10 10 11 12 11 10 9 9 9 9 7 6 6 6 6 6 5 4 4 5 5 5 5 5 5 4 4 5 5 5 5 5 6 6 7 7 7 8 8 9 9 10 11 12 12 12 12 12 12 12 12 12 11 11 10 10 10 10 11 11 11 11 11 11 11 10 10 10 10
11 12 12 12 11 10 9 9 8 7 6 6 6 6 5 4 4 4 4 5 5 5 5 5 5 4 4 5 5 5 6 6 6 6 7 7 8 9 9 10 10 11 11 12 12 12 12 12 12 12 12 12 11 11 11 10 10 11 11 11 11 10 10 10 10 10 10 9 10
Height
3044 3043 3043 3043 3042 3042 3041 3040 3040 3039 3038 3038 3037 3036 3036 3035 3034 3033 3032 3032 3031 3030 3030 3029 3028 3028 3027 3027 3026 3025 3025 3024 3024 3023 3023 3023 3022 3022 3021 3021 3020 3020 3019 3019 3019 3018 3018 3018 3018 3017 3017 3017 3017 3016 3016 3016 3016 3015 3015 3015 3015 3014 3014 3014 3014 3014 3014 3014 3014
3042 3042 3042 3042 3041 3041 3040 3039 3039 3038 3037 3037 3036 3035 3035 3034 3033 3032 3032 3031 3030 3030 3029 3028 3027 3027 3027 3026 3025 3025 3024 3024 3023 3022 3022 3022 3022 3021 3021 3020 3020 3019 3019 3018 3018 3017 3017 3017 3017 3017 3016 3016 3016 3016 3015 3015 3015 3015 3014 3014 3014 3014 3013 3013 3013 3013 3013 3013 3013
3041 3041 3040 3040 3039 3039 3038 3038 3037 3037 3036 3036 3035 3034 3034 3033 3032 3032 3031 3030 3029 3029 3028 3028 3027 3027 3026 3025 3025 3024 3023 3023 3022 3022 3021 3021 3021 3020 3020 3019 3019 3018 3018 3017 3017 3017 3016 3016 3015 3015 3015 3015 3015 3015 3015 3014 3014 3014 3013 3013 3013 3013 3013 3012 3012 3012 3012 3012 3012
3039 3039 3039 3038 3038 3037 3037 3037 3036 3036 3035 3034 3034 3033 3033 3032 3032 3031 3030 3029 3029 3028 3027 3027 3026 3026 3025 3025 3024 3023 3023 3022 3022 3021 3021 3020 3020 3019 3019 3018 3018 3017 3017 3017 3016 3016 3015 3015 3014 3014 3013 3013 3013 3013 3013 3013 3013 3013 3013 3012 3012 3012 3012 3012 3012 3012 3012 3011 3011
3037 3037 3037 3037 3036 3036 3036 3035 3035 3034 3034 3033 3032 3032 3031 3031 3030 3030 3029 3028 3028 3027 3027 3026 3025 3025 3024 3024 3023 3023 3022 3022 3021 3020 3020 3019 3019 3018 3018 3017 3017 3017 3016 3016 3015 3015 3014 3014 3013 3013 3012 3012 3012 3012 3011 3011 3012 3012 3011 3011 3011 3011 3011 3011 3011 3011 3011 3011 3010
3035 3035 3035 3035 3035 3034 3034 3033 3033 3032 3032 3032 3031 3031 3030 3029 3029 3028 3028 3027 3027 3026 3025 3025 3024 3024 3023 3023 3022 3022 3021 3021 3020 3020 3019 3018 3018 3017 3017 3016 3016 3015 3015 3014 3014 3014 3013 3013 3012 3012 3012 3011 3011 3010 3010 3010 3010 3010 3010 3010 3009 3009 3009 3009 3009 3009 3010 3010 3009
3034 3033 3033 3033 3033 3032 3032 3032 3031 3031 3030 3030 3029 3029 3028 3028 3027 3027 3026 3026 3025 3024 3024 3023 3023 3022 3022 3022 3021 3021 3020 3020 3019 3019 3018 3018 3017 3017 3016 3015 3015 3014 3014 3013 3013 3012 3012 3012 3011 3011 3011 3010 3010 3009 3009 3008 3008 3008 3007 3007 3007 3007 3007 3007 3007 3008 3008 3008 3008
3032 3032 3032 3031 3031 3031 3030 3030 3029 3029 3029 3028 3028 3027 3027 3026 3026 3025 3025 3024 3023 3023 3022 3022 3022 3021 3021 3020 3020 3020 3019 3019 3018 3018 3017 3017 3017 3016 3015 3015 3014 3013 3013 3012 3012 3011 3011 3010 3010 3010 3009 3009 3008 3008 3007 3007 3007 3006 3006 3006 3006 3005 3005 3005 3005 3005 3006 3006 3006
3030 3030 3030 3029 3029 3029 3028 3028 3027 3027 3027 3027 3026 3026 3025 3025 3024 3024 3023 3023 3022 3022 3021 3021 3020 3020 3019 3019 3018 3018 3018 3017 3017 3017 3016 3016 3015 3015 3014 3014 3013 3012 3012 3011 3011 3010 3009 3009 3008 3008 3008 3007 3007 3007 3006 3006 3006 3005 3005 3004 3004 3004 3003 3003 3003 3003 3003 3003 3004
3028 3028 3028 3027 3027 3027 3027 3026 3026 3026 3025 3025 3024 3024 3023 3023 3022 3022 3022 3021 3021 3020 3019 3019 3018 3018 3018 3017 3017 3017 3016 3016 3015 3015 3015 3014 3014 3013 3013 3012 3012 3012 3011 3010 3010 3009 3008 3008 3007 3007 3006 3006 3006 3005 3005 3005 3004 3004 3003 3003 3002 3002 3002 3002 3001 3001 3001 3001 3001
3026 3026 3026 3026 3026 3025 3025 3024 3024 3024 3023 3023 3023 3022 3022 3021 3021 3020 3020 3019 3019 3018 3018 3017 3017 3017 3016 3016 3015 3015 3015 3014 3014 3013 3013 3012 3012 3012 3011 3011 3011 3010 3010 3009 3009 3008 3007 3007 3007 3006 3005 3005 3004 3004 3003 3003 3003 3002 3002 3002 3001 3001 3000 3000 2999 2999 2998 2998 2998
3025 3024 3024 3024 3024 3023 3023 3022 3022 3022 3022 3021 3021 3021 3020 3020 3019 3019 3018 3018 3017 3017 3016 3016 3015 3015 3015 3014 3014 3013 3013 3012 3012 3012 3011 3011 3010 3010 3010 3009 3009 3008 3008 3008 3007 3007 3007 3006 3005 3005 3004 3004 3003 3002 3002 3002 3002 3001 3001 3000 3000 2999 2999 2998 2998 2997 2997 2997 2996
3022 3022 3022 3022 3022 3022 3021 3021 3020 3020 3020 3019 3019 3019 3018 3018 3017 3017 3016 3016 3016 3015 3014 3014 3014 3013 3013 3012 3012 3012 3011 3011 3010 3010 3009 3009 3008 3008 3008 3007 3007 3007 3007 3006 3006 3006 3005 3005 3004 3004 3003 3003 3002 3002 3001 3001 3000 3000 2999 2999 2998 2998 2997 2997 2997 2996 2996 2995 2995
3021 3021 3021 3020 3020 3020 3019 3019 3018 3018 3018 3017 3017 3017 3017 3016 3016 3015 3015 3014 3014 3013 3013 3012 3012 3012 3011 3011 3010 3010 3009 3009 3008 3008 3007 3007 3007 3006 3006 3005 3005 3005 3005 3004 3004 3004 3004 3003 3003 3002 3002 3002 3001 3001 3000 3000 2999 2998 2998 2997 2997 2997 2996 2996 2996 2995 2995 2994 2994
3018 3018 3018 3018 3018 3017 3017 3017 3017 3016 3016 3016 3015 3015 3015 3014 3014 3013 3013 3012 3012 3011 3011 3011 3010 3010 3009 3009 3008 3008 3007 3007 3007 3006 3006 3005 3005 3004 3004 3003 3003 3003 3002 3002 3002 3002 3002 3002 3002 3001 3001 3000 3000 3000 2999 2999 2998 2997 2997 2997 2996 2996 2995 2995 2994 2994 2993 2993 2992
3017 3016 3016 3016 3016 3016 3015 3015 3014 3014 3014 3014 3013 3013 3013 3012 3012 3011 3011 3011 3010 3009 3009 3008 3008 3008 3007 3007 3007 3006 3006 3005 3005 3004 3004 3003 3003 3002 3002 3002 3001 3001 3001 3000 3000 3000 3000 3000 3000 2999 2999 2999 2998 2998 2998 2997 2997 2997 2996 2996 2995 2994 2994 2993 2993 2992 2992 2992 2991
3014 3014 3014 3014 3014 3013 3013 3013 3012 3012 3012 3012 3012 3011 3011 3010 3010 3009 3009 3008 3008 3007 3007 3007 3006 3006 3005 3005 3004 3004 3003 3003 3003 3002 3002 3002 3001 3001 3000 3000 2999 2999 2998 2998 2998 2998 2997 2997 2997 2997 2997 2997 2997 2997 2996 2996 2996 2995 2995 2995 2994 2994 2993 2992 2992 2992 2991 2991 2990
3012 3012 3012 3012 3012 3011 3011 3011 3011 3010 3010 3010 3009 3009 3009 3008 3008 3007 3007 3007 3006 3006 3005 3004 3004 3003 3003 3002 3002 3002 3002 3001 3001 3000 3000 2999 2999 2999 2998 2998 2997 2997 2996 2996 2996 2995 2995 2995 2995 2995 2995 2995 2994 2994 2994 2994 2994 2993 2993 2993 2992 2992 2992 2992 2991 2991 2990 2990 2989
3010 3010 3010 3010 3009 3009 3009 3009 3008 3008 3008 3007 3007 3007 3007 3006 3006 3005 3005 3004 3004 3003 3003 3002 3002 3001 3001 3000 3000 2999 2999 2999 2998 2998 2997 2997 2997 2996 2996 2996 2995 2995 2994 2994 2993 2993 2992 2992 2992 2992 2992 2992 2992 2992 2992 2991 2991 2991 2991 2991 2990 2990 2990 2989 2989 2989 2989 2988 2988
3008 3008 3008 3007 3007 3007 3007 3007 3006 3006 3006 3006 3005 3005 3004 3004 3004 3003 3003 3002 3002 3002 3001 3001 3000 2999 2998 2998 2997 2997 2997 2996 2996 2995 2995 2995 2994 2994 2993 2993 2993 2992 2992 2991 2991 2991 2990 2990 2989 2989 2989 2989 2989 2989 2988 2988 2988 2988 2988 2988 2987 2987 2987 2987 2987 2986 2986 2986 2986
3006 3006 3006 3006 3005 3005 3005 3004 3004 3004 3004 3003 3003 3003 3002 3002 3002 3001 3001 3000 3000 2999 2999 2998 2998 2997 2997 2996 2995 2995 2994 2994 2993 2993 2992 2992 2992 2991 2991 2990 2990 2990 2989 2989 2988 2988 2987 2987 2987 2987 2987 2986 2986 2986 2986 2986 2985 2985 2985 2985 2985 2984 2984 2983 2983 2983 2983 2983 2983
3004 3004 3004 3003 3003 3003 3002 3002 3002 3002 3002 3001 3001 3001 3000 3000 2999 2999 2998 2998 2997 2997 2997 2996 2995 2995 2994 2994 2993 2992 2992 2991 2991 2990 2990 2989 2989 2988 2988 2987 2987 2987 2986 2986 2985 2985 2985 2984 2984 2984 2984 2983 2983 2983 2983 2982 2982 2982 2982 2982 2982 2981 2981 2981 2980 2980 2979 2979 2979
3002 3002 3001 3001 3001 3000 3000 3000 3000 3000 2999 2999 2999 2998 2998 2997 2997 2997 2996 2996 2995 2995 2994 2993 2993 2992 2992 2991 2990 2990 2989 2989 2988 2988 2987 2987 2986 2986 2985 2985 2984 2984 2983 2983 2982 2982 2981 2981 2981 2981 2981 2980 2980 2980 2980 2980 2979 2979 2979 2979 2979 2978 2978 2978 2977 2977 2976 2976 2975
3000 2999 2999 2999 2998 2998 2998 2998 2997 2997 2997 2997 2997 2996 2996 2995 2995 2994 2994 2993 2993 2992 2992 2991 2990 2989 2989 2988 2987 2987 2987 2986 2986 2985 2985 2984 2983 2983 2982 2982 2982 2981 2980 2980 2979 2978 2977 2977 2977 2977 2977 2977 2977 2977 2977 2977 2976 2976 2976 2976 2976 2975 2975 2975 2974 2974 2973 2973 2972
2997 2997 2997 2997 2996 2996 2996 2996 2995 2995 2995 2994 2994 2994 2993 2993 2992 2992 2992 2991 2990 2990 2989 2988 2987 2987 2986 2986 2985 2984 2984 2983 2983 2982 2982 2981 2981 2980 2980 2979 2978 2978 2977 2977 2976 2975 2974 2973 2973 2972 2972 2972 2972 2972 2973 2973 2972 2972 2972 2972 2972 2972 2972 2972 2971 2971 2970 2970 2969
2995 2995 2994 2994 2994 2994 2993 2993 2993 2993 2992 2992 2992 2992 2991 2991 2990 2990 2989 2988 2988 2987 2987 2986 2985 2985 2984 2983 2983 2982 2981 2981 2980 2980 2979 2979 2978 2977 2977 2976 2975 2975 2974 2973 2972 2971 2970 2970 2969 2968 2967 2967 2967 2967 2968 2968 2968 2968 2968 2968 2968 2968 2968 2968 2967 2967 2967 2967 2966
2992 2992 2992 2992 2992 2991 2991 2991 2991 2991 2990 2990 2989 2989 2988 2988 2988 2987 2987 2986 2985 2985 2984 2983 2983 2982 2982 2981 2981 2980 2979 2978 2978 2977 2977 2976 2975 2975 2974 2973 2972 2971 2970 2969 2968 2967 2967 2966 2965 2964 2963 2962 2962 2962 2962 2963 2963 2963 2963 2963 2963 2963 2963 2963 2963 2963 2963 2963 2962
2990 2989 2989 2989 2989 2989 2989 2989 2988 2988 2988 2987 2987 2987 2986 2986 2985 2985 2984 2983 2983 2982 2982 2981 2981 2980 2979 2979 2978 2978 2977 2976 2976 2975 2974 2973 2973 2972 2971 2970 2970 2968 2967 2967 2965 2964 2963 2962 2962 2961 2959 2958 2957 2957 2957 2957 2958 2958 2959 2959 2959 2958 2958 2958 2958 2958 2958 2958 2958
2987 2987 2987 2987 2987 2987 2986 2986 2986 2986 2985 2985 2984 2984 2983 2983 2982 2982 2982 2981 2980 2980 2979 2979 2978 2977 2977 2977 2976 2975 2975 2974 2973 2972 2972 2971 2970 2970 2969 2968 2967 2966 2965 2964 2963 2962 2961 2959 2958 2957 2956 2955 2954 2953 2953 2953 2953 2953 2953 2954 2954 2954 2953 2953 2953 2953 2953 2953 2953
2984 2984 2984 2984 2984 2984 2984 2983 2983 2983 2983 2982 2982 2981 2981 2980 2980 2979 2979 2978 2977 2977 2977 2976 2976 2975 2974 2973 2973 2972 2972 2971 2971 2970 2969 2968 2968 2967 2967 2966 2965 2964 2963 2962 2961 2959 2958 2957 2956 2955 2953 2952 2951 2950 2949 2948 2948 2948 2949 2949 2949 2949 2949 2948 2948 2948 2948 2948 2948
2982 2982 2982 2982 2981 2981 2981 2981 2981 2980 2980 2980 2979 2979 2978 2977 2977 2977 2976 2975 2975 2974 2974 2973 2972 2972 2971 2971 2970 2969 2969 2968 2967 2967 2966 2965 2965 2964 2964 2963 2962 2962 2961 2960 2958 2957 2956 2955 2953 2952 2951 2949 2947 2947 2946 2945 2944 2944 2944 2944 2944 2944 2944 2944 2943 2943 2943 2943 2943
2979 2979 2979 2979 2979 2978 2978 2978 2978 2978 2977 2977 2977 2976 2975 2975 2974 2974 2973 2972 2972 2971 2971 2970 2969 2969 2968 2967 2967 2966 2966 2965 2964 2963 2963 2962 2962 2961 2960 2960 2959 2959 2958 2957 2955 2954 2953 2952 2950 2949 2947 2946 2944 2943 2942 2942 2941 2940 2940 2940 2940 2940 2940 2939 2939 2939 2938 2938 2938
2977 2977 2976 2976 2976 2976 2976 2976 2975 2975 2975 2974 2974 2973 2973 2972 2972 2971 2970 2970 2969 2968 2968 2967 2966 2966 2965 2964 2964 2963 2962 2962 2961 2960 2960 2959 2958 2957 2957 2956 2956 2955 2954 2953 2952 2950 2949 2948 2947 2945 2944 2942 2941 2940 2939 2938 2937 2937 2936 2936 2936 2936 2935 2935 2935 2934 2934 2934 2933
2974 2974 2974 2974 2973 2973 2973 2973 2973 2972 2972 2972 2971 2971 2970 2970 2969 2968 2968 2967 2966 2966 2965 2964 2963 2963 2962 2962 2961 2960 2959 2959 2958 2957 2957 2955 2954 2954 2953 2952 2952 2951 2950 2949 2947 2946 2945 2944 2942 2941 2940 2938 2937 2936 2935 2934 2933 2932 2932 2932 2932 2931 2931 2931 2930 2930 2930 2929 2929
2972 2971 2971 2971 2971 2971 2971 2971 2970 2970 2970 2969 2969 2968 2968 2967 2967 2966 2965 2964 2964 2963 2962 2962 2961 2960 2959 2958 2958 2957 2957 2956 2955 2954 2953 2952 2951 2950 2949 2948 2947 2947 2946 2945 2944 2942 2942 2940 2939 2937 2936 2934 2933 2932 2931 2930 2929 2929 2928 2928 2927 2927 2927 2927 2926 2926 2926 2925 2925
2969 2969 2969 2969 2969 2968 2968 2968 2968 2967 2967 2967 2966 2966 2965 2965 2964 2963 2962 2962 2961 2960 2960 2959 2958 2957 2957 2956 2955 2954 2953 2952 2952 2951 2950 2949 2948 2947 2945 2944 2944 2943 2943 2942 2940 2939 2938 2937 2935 2933 2932 2930 2929 2927 2927 2926 2925 2925 2924 2924 2923 2923 2923 2922 2922 2922 2922 2921 2921
2967 2967 2967 2966 2966 2966 2966 2966 2966 2965 2965 2964 2964 2963 2963 2962 2962 2961 2960 2959 2958 2958 2957 2956 2956 2955 2954 2953 2952 2951 2950 2949 2948 2947 2946 2945 2944 2943 2942 2941 2940 2940 2939 2938 2937 2936 2934 2933 2932 2930 2928 2926 2925 2923 2922 2922 2921 2920 2920 2920 2919 2919 2919 2918 2918 2917 2917 2917 2917
2964 2964 2964 2964 2964 2964 2964 2963 2963 2963 2962 2962 2962 2961 2961 2960 2959 2958 2957 2957 2956 2955 2954 2954 2953 2952 2951 2950 2949 2948 2947 2947 2945 2944 2943 2942 2940 2939 2938 2937 2937 2936 2936 2935 2933 2932 2931 2929 2928 2926 2924 2922 2921 2919 2918 2917 2916 2916 2915 2915 2915 2915 2915 2915 2914 2914 2913 2913 2913
2962 2962 2962 2962 2962 2962 2961 2961 2961 2961 2960 2960 2959 2959 2958 2957 2957 2956 2955 2954 2953 2952 2952 2951 2950 2949 2948 2947 2947 2945 2944 2944 2942 2941 2940 2938 2937 2936 2935 2934 2933 2932 2932 2931 2930 2928 2927 2926 2924 2922 2921 2919 2917 2915 2913 2912 2912 2911 2911 2911 2910 2910 2910 2910 2910 2909 2909 2909 2909
2960 2960 2960 2959 2959 2959 2959 2959 2958 2958 2958 2957 2957 2956 2956 2955 2954 2953 2952 2952 2951 2950 2949 2948 2947 2947 2946 2945 2943 2942 2941 2941 2940 2938 2937 2935 2934 2933 2932 2930 2929 2928 2928 2927 2926 2925 2923 2922 2921 2919 2917 2915 2913 2911 2909 2908 2907 2907 2906 2906 2906 2906 2905 2905 2905 2905 2905 2905 2904
2957 2957 2957 2957 2957 2957 2957 2957 2956 2956 2955 2955 2954 2953 2953 2952 2951 2950 2950 2949 2948 2947 2946 2945 2944 2943 2942 2942 2940 2939 2938 2937 2936 2935 2934 2932 2931 2930 2928 2927 2926 2925 2924 2923 2922 2921 2920 2918 2917 2916 2914 2912 2909 2907 2906 2904 2903 2902 2902 2901 2901 2901 2900 2900 2900 2900 2900 2900 2900